| time (UTC) | temp C | wind direction | speed KPH | gust KPH | rain 1hr cm | rain 24hr cm | rain mn cm | humidity % | barometer mb |
| 20260905153846 | 13 | 259 | 6.4 | 12.9 | 0.00 | 0.00 | 0.00 | 87 | 958.0 |
| 20260905153346 | 13 | 270 | 6.4 | 12.9 | 0.00 | 0.00 | 0.00 | 85 | 958.0 |
| 20260905152846 | 13 | 308 | 6.4 | 11.3 | 0.00 | 0.00 | 0.00 | 85 | 957.9 |
| 20260905152346 | 13 | 298 | 6.4 | 11.3 | 0.00 | 0.00 | 0.00 | 84 | 957.8 |
| 20260905151846 | 13 | 233 | 6.4 | 11.3 | 0.00 | 0.00 | 0.00 | 85 | 957.8 |
| 20260905151346 | 13 | 280 | 6.4 | 12.9 | 0.00 | 0.00 | 0.00 | 84 | 957.8 |
| 20260905150845 | 13 | 255 | 6.4 | 12.9 | 0.00 | 0.00 | 0.00 | 87 | 957.8 |
| 20260905150345 | 13 | 306 | 4.8 | 11.3 | 0.00 | 0.00 | 0.00 | 83 | 957.7 |
| 20260905145845 | 13 | 230 | 4.8 | 11.3 | 0.00 | 0.00 | 0.00 | 84 | 957.7 |
| 20260905145345 | 13 | 307 | 4.8 | 8.0 | 0.00 | 0.00 | 0.00 | 81 | 957.7 |
| 20260905144845 | 13 | 255 | 4.8 | 8.0 | 0.00 | 0.00 | 0.00 | 85 | 957.7 |
| 20260905144345 | 13 | 277 | 4.8 | 12.9 | 0.00 | 0.00 | 0.00 | 82 | 957.6 |
| 20260905143845 | 13 | 315 | 4.8 | 12.9 | 0.00 | 0.00 | 0.00 | 80 | 957.7 |
| 20260905143345 | 13 | 277 | 4.8 | 9.7 | 0.00 | 0.00 | 0.00 | 79 | 957.5 |
| 20260905142845 | 13 | 313 | 4.8 | 12.9 | 0.00 | 0.00 | 0.00 | 81 | 957.4 |
| 20260905142345 | 12 | 272 | 4.8 | 12.9 | 0.00 | 0.00 | 0.00 | 83 | 957.4 |
| 20260905141845 | 13 | 268 | 6.4 | 11.3 | 0.00 | 0.00 | 0.00 | 81 | 957.2 |
| 20260905141345 | 13 | 323 | 6.4 | 11.3 | 0.00 | 0.00 | 0.00 | 77 | 957.5 |
| 20260905140845 | 14 | 299 | 4.8 | 16.1 | 0.00 | 0.00 | 0.00 | 74 | 957.2 |
| 20260905140345 | 15 | 274 | 3.2 | 17.7 | 0.00 | 0.00 | 0.00 | 76 | 957.1 |
| 20260905135844 | 15 | 242 | 4.8 | 17.7 | 0.00 | 0.00 | 0.00 | 78 | 957.1 |
| 20260905135344 | 15 | 141 | 3.2 | 12.9 | 0.00 | 0.00 | 0.00 | 76 | 957.1 |
| 20260905134844 | 16 | 216 | 3.2 | 9.7 | 0.00 | 0.00 | 0.00 | 72 | 957.1 |
| 20260905134344 | 15 | 136 | 3.2 | 9.7 | 0.00 | 0.00 | 0.00 | 76 | 956.9 |
| 20260905133844 | 14 | 234 | 3.2 | 8.0 | 0.00 | 0.00 | 0.00 | 77 | 956.9 |
| 20260905133344 | 14 | 272 | 3.2 | 8.0 | 0.00 | 0.00 | 0.00 | 81 | 957.0 |
| 20260905132844 | 14 | 329 | 3.2 | 8.0 | 0.00 | 0.00 | 0.00 | 80 | 956.8 |
| 20260905132345 | 14 | 164 | 3.2 | 12.9 | 0.00 | 0.00 | 0.00 | 84 | 956.9 |
| 20260905131844 | 14 | 262 | 3.2 | 12.9 | 0.00 | 0.00 | 0.00 | 80 | 956.9 |
| 20260905131344 | 15 | 81 | 3.2 | 11.3 | 0.00 | 0.00 | 0.00 | 81 | 957.0 |
| 20260905130844 | 14 | 120 | 4.8 | 14.5 | 0.00 | 0.00 | 0.00 | 83 | 957.0 |
| 20260905130344 | 13 | 255 | 6.4 | 14.5 | 0.00 | 0.00 | 0.00 | 81 | 956.9 |
| 20260905125844 | 13 | 255 | 4.8 | 12.9 | 0.00 | 0.00 | 0.00 | 81 | 956.8 |
| 20260905125344 | 13 | 282 | 6.4 | 12.9 | 0.00 | 0.00 | 0.00 | 85 | 956.9 |
| 20260905124844 | 13 | 247 | 6.4 | 14.5 | 0.00 | 0.00 | 0.00 | 86 | 956.8 |
| 20260905124344 | 12 | 249 | 6.4 | 17.7 | 0.00 | 0.00 | 0.00 | 91 | 956.9 |
| 20260905123843 | 12 | 247 | 6.4 | 17.7 | 0.00 | 0.00 | 0.00 | 91 | 956.8 |
| 20260905123343 | 12 | 243 | 6.4 | 16.1 | 0.00 | 0.00 | 0.00 | 93 | 956.8 |
| 20260905122843 | 12 | 260 | 6.4 | 11.3 | 0.00 | 0.00 | 0.00 | 96 | 956.6 |
| 20260905122343 | 12 | 295 | 4.8 | 11.3 | 0.00 | 0.00 | 0.00 | 94 | 956.6 |
| 20260905121843 | 11 | 268 | 4.8 | 11.3 | 0.00 | 0.00 | 0.00 | 95 | 956.6 |
| 20260905121343 | 12 | 300 | 4.8 | 9.7 | 0.00 | 0.00 | 0.00 | 95 | 956.6 |
| 20260905120843 | 12 | 286 | 4.8 | 9.7 | 0.00 | 0.00 | 0.00 | 93 | 956.5 |
| 20260905120343 | 12 | 283 | 4.8 | 11.3 | 0.00 | 0.00 | 0.00 | 88 | 956.5 |
| 20260905115843 | 13 | 282 | 4.8 | 11.3 | 0.00 | 0.00 | 0.00 | 80 | 956.5 |
| 20260905115343 | 13 | 239 | 3.2 | 11.3 | 0.00 | 0.00 | 0.00 | 76 | 956.6 |
| 20260905114843 | 14 | 222 | 3.2 | 9.7 | 0.00 | 0.00 | 0.00 | 78 | 956.5 |
| 20260905114343 | 15 | 211 | 1.6 | 8.0 | 0.00 | 0.00 | 0.00 | 80 | 956.6 |
| 20260905113843 | 16 | 226 | 3.2 | 12.9 | 0.00 | 0.00 | 0.00 | 80 | 956.4 |
| 20260905113313 | 15 | 249 | 3.2 | 12.9 | 0.00 | 0.00 | 0.00 | 77 | 956.3 |
| 20260905112813 | 16 | 55 | 3.2 | 12.9 | 0.00 | 0.00 | 0.00 | 82 | 956.5 |
| 20260905112313 | 16 | 121 | 3.2 | 12.9 | 0.00 | 0.00 | 0.00 | 78 | 956.2 |
| 20260905111812 | 16 | 141 | 3.2 | 12.9 | 0.00 | 0.00 | 0.00 | 82 | 956.3 |
| 20260905111312 | 15 | 136 | 3.2 | 12.9 | 0.00 | 0.00 | 0.00 | 84 | 956.3 |
| 20260905110812 | 15 | 91 | 3.2 | 11.3 | 0.00 | 0.00 | 0.00 | 87 | 956.1 |
| 20260905110312 | 14 | 128 | 3.2 | 11.3 | 0.00 | 0.00 | 0.00 | 88 | 956.1 |
| 20260905105812 | 13 | 81 | 1.6 | 8.0 | 0.00 | 0.00 | 0.00 | 91 | 956.0 |
| 20260905105312 | 13 | 167 | 1.6 | 8.0 | 0.00 | 0.00 | 0.00 | 92 | 956.0 |
| 20260905104812 | 13 | 326 | 3.2 | 9.7 | 0.00 | 0.00 | 0.00 | 93 | 956.0 |
| 20260905104312 | 13 | 153 | 1.6 | 9.7 | 0.00 | 0.00 | 0.00 | 94 | 956.0 |
| 20260905103812 | 13 | 155 | 1.6 | 9.7 | 0.00 | 0.00 | 0.00 | 94 | 956.0 |
| 20260905103312 | 13 | 111 | 1.6 | 9.7 | 0.00 | 0.00 | 0.00 | 95 | 956.0 |
| 20260905102812 | 13 | 16 | 1.6 | 6.4 | 0.00 | 0.00 | 0.00 | 96 | 956.0 |
| 20260905102312 | 12 | 234 | 1.6 | 8.0 | 0.00 | 0.00 | 0.00 | 95 | 956.0 |
| 20260905101812 | 12 | 89 | 1.6 | 8.0 | 0.00 | 0.00 | 0.00 | 95 | 956.0 |
| 20260905101312 | 13 | 154 | 1.6 | 8.0 | 0.00 | 0.00 | 0.00 | 96 | 955.9 |
| 20260905100812 | 13 | 189 | 1.6 | 8.0 | 0.00 | 0.00 | 0.00 | 96 | 955.9 |
| 20260905100312 | 13 | 204 | 1.6 | 8.0 | 0.00 | 0.00 | 0.00 | 96 | 955.8 |
| 20260905095812 | 13 | 84 | 1.6 | 8.0 | 0.00 | 0.00 | 0.00 | 97 | 955.6 |
| 20260905095311 | 13 | 78 | 1.6 | 8.0 | 0.00 | 0.00 | 0.00 | 96 | 955.6 |
| 20260905094811 | 13 | 175 | 1.6 | 8.0 | 0.00 | 0.00 | 0.00 | 97 | 955.6 |
| 20260905094311 | 12 | 169 | 1.6 | 6.4 | 0.00 | 0.00 | 0.00 | 97 | 955.5 |
| 20260905093811 | 12 | 167 | 0.0 | 4.8 | 0.00 | 0.00 | 0.00 | 98 | 955.6 |
| 20260905093311 | 12 | 151 | 1.6 | 6.4 | 0.00 | 0.00 | 0.00 | 97 | 955.4 |
| 20260905092811 | 11 | 174 | 3.2 | 6.4 | 0.00 | 0.00 | 0.00 | 98 | 955.4 |
| 20260905092311 | 11 | 339 | 3.2 | 8.0 | 0.00 | 0.00 | 0.00 | 97 | 955.2 |
| 20260905091811 | 11 | 277 | 3.2 | 8.0 | 0.00 | 0.00 | 0.00 | 98 | 955.3 |
| 20260905091311 | 11 | 16 | 3.2 | 8.0 | 0.00 | 0.00 | 0.00 | 97 | 955.3 |
| 20260905090811 | 11 | 45 | 3.2 | 9.7 | 0.00 | 0.00 | 0.00 | 99 | 955.4 |
| 20260905090311 | 11 | 2 | 3.2 | 9.7 | 0.00 | 0.00 | 0.00 | 10 | 955.3 |
| 20260905085811 | 11 | 37 | 3.2 | 8.0 | 0.00 | 0.00 | 0.00 | 10 | 955.1 |
| 20260905085311 | 10 | 170 | 3.2 | 8.0 | 0.00 | 0.00 | 0.00 | 10 | 955.1 |
| 20260905084811 | 10 | 314 | 4.8 | 9.7 | 0.00 | 0.00 | 0.00 | 10 | 955.0 |
| 20260905084311 | 10 | 325 | 4.8 | 11.3 | 0.00 | 0.00 | 0.00 | 10 | 955.0 |
| 20260905083810 | 10 | 356 | 4.8 | 11.3 | 0.00 | 0.00 | 0.00 | 10 | 955.0 |
| 20260905083310 | 10 | 260 | 3.2 | 8.0 | 0.00 | 0.00 | 0.00 | 10 | 954.9 |
| 20260905082810 | 10 | 339 | 3.2 | 8.0 | 0.00 | 0.00 | 0.00 | 10 | 954.9 |
| 20260905082310 | 10 | 272 | 3.2 | 8.0 | 0.00 | 0.00 | 0.00 | 10 | 954.9 |
| 20260905081810 | 10 | 259 | 3.2 | 6.4 | 0.00 | 0.00 | 0.00 | 99 | 954.8 |
| 20260905081310 | 10 | 331 | 1.6 | 6.4 | 0.00 | 0.00 | 0.00 | 99 | 954.8 |
| 20260905080810 | 11 | 9 | 1.6 | 4.8 | 0.00 | 0.00 | 0.00 | 10 | 954.8 |
| 20260905080310 | 11 | 148 | 1.6 | 4.8 | 0.00 | 0.00 | 0.00 | 10 | 954.8 |
| 20260905075810 | 10 | 50 | 1.6 | 4.8 | 0.00 | 0.00 | 0.00 | 10 | 954.8 |
| 20260905075310 | 10 | 238 | 1.6 | 4.8 | 0.00 | 0.00 | 0.00 | 10 | 954.8 |
| 20260905074810 | 10 | 53 | 1.6 | 6.4 | 0.00 | 0.00 | 0.00 | 10 | 954.7 |
| 20260905074310 | 10 | 349 | 1.6 | 9.7 | 0.00 | 0.00 | 0.00 | 10 | 954.7 |
| 20260905073810 | 10 | 93 | 3.2 | 9.7 | 0.00 | 0.00 | 0.00 | 10 | 954.7 |
| 20260905073310 | 10 | 338 | 3.2 | 8.0 | 0.00 | 0.00 | 0.00 | 10 | 954.6 |
| 20260905072809 | 10 | 35 | 3.2 | 8.0 | 0.00 | 0.00 | 0.00 | 10 | 954.5 |
| 20260905072309 | 9 | 0 | 3.2 | 8.0 | 0.00 | 0.00 | 0.00 | 10 | 954.4 |
| 20260905071809 | 9 | 344 | 4.8 | 8.0 | 0.00 | 0.00 | 0.00 | 10 | 954.4 |
| 20260905071309 | 9 | 247 | 4.8 | 8.0 | 0.00 | 0.00 | 0.00 | 10 | 954.3 |
| 20260905070809 | 9 | 248 | 4.8 | 9.7 | 0.00 | 0.00 | 0.00 | 10 | 954.2 |
| 20260905070309 | 9 | 281 | 4.8 | 9.7 | 0.00 | 0.00 | 0.00 | 10 | 954.2 |
| 20260905065809 | 10 | 242 | 1.6 | 9.7 | 0.00 | 0.00 | 0.00 | 99 | 954.2 |
| 20260905065309 | 10 | 240 | 1.6 | 4.8 | 0.00 | 0.00 | 0.00 | 99 | 954.3 |
| 20260905064809 | 10 | 144 | 1.6 | 4.8 | 0.00 | 0.00 | 0.00 | 10 | 954.3 |
| 20260905064309 | 10 | 247 | 1.6 | 4.8 | 0.00 | 0.00 | 0.00 | 99 | 954.1 |
| 20260905063809 | 10 | 87 | 0.0 | 1.6 | 0.00 | 0.00 | 0.00 | 10 | 954.2 |
| 20260905063309 | 9 | 68 | 0.0 | 3.2 | 0.00 | 0.00 | 0.00 | 10 | 954.1 |
| 20260905062809 | 9 | 189 | 1.6 | 4.8 | 0.00 | 0.00 | 0.00 | 10 | 954.1 |
| 20260905062309 | 8 | 159 | 1.6 | 4.8 | 0.00 | 0.00 | 0.00 | 10 | 954.1 |
| 20260905061809 | 9 | 94 | 0.0 | 3.2 | 0.00 | 0.00 | 0.00 | 10 | 954.0 |
| 20260905061309 | 8 | 216 | 0.0 | 3.2 | 0.00 | 0.00 | 0.00 | 10 | 954.0 |
| 20260905060809 | 8 | 146 | 1.6 | 3.2 | 0.00 | 0.00 | 0.00 | 10 | 953.9 |
| 20260905060308 | 8 | 115 | 1.6 | 6.4 | 0.00 | 0.00 | 0.00 | 10 | 953.9 |
| 20260905055808 | 8 | 56 | 3.2 | 6.4 | 0.00 | 0.00 | 0.00 | 10 | 953.9 |
| 20260905055308 | 8 | 333 | 3.2 | 6.4 | 0.00 | 0.00 | 0.00 | 10 | 953.8 |
| 20260905054808 | 8 | 282 | 3.2 | 6.4 | 0.00 | 0.00 | 0.00 | 10 | 953.8 |
| 20260905054308 | 8 | 295 | 3.2 | 6.4 | 0.00 | 0.00 | 0.00 | 10 | 953.8 |
| 20260905053808 | 8 | 238 | 1.6 | 4.8 | 0.00 | 0.00 | 0.00 | 10 | 953.7 |
| 20260905053308 | 8 | 248 | 1.6 | 3.2 | 0.00 | 0.00 | 0.00 | 10 | 953.6 |
| 20260905052738 | 8 | 219 | 1.6 | 4.8 | 0.00 | 0.00 | 0.00 | 10 | 953.8 |
| 20260905052238 | 8 | 119 | 1.6 | 4.8 | 0.00 | 0.00 | 0.00 | 10 | 953.7 |
| 20260905051738 | 8 | 132 | 1.6 | 6.4 | 0.00 | 0.00 | 0.00 | 10 | 953.7 |
| 20260905051238 | 8 | 2 | 1.6 | 6.4 | 0.00 | 0.00 | 0.00 | 10 | 953.6 |
| 20260905050738 | 8 | 306 | 1.6 | 3.2 | 0.00 | 0.00 | 0.00 | 10 | 953.6 |
| 20260905050238 | 7 | 344 | 1.6 | 3.2 | 0.00 | 0.00 | 0.00 | 10 | 953.5 |
| 20260905045738 | 7 | 258 | 1.6 | 4.8 | 0.00 | 0.00 | 0.00 | 10 | 953.6 |
| 20260905045238 | 7 | 306 | 1.6 | 4.8 | 0.00 | 0.00 | 0.00 | 99 | 953.5 |
| 20260905044738 | 7 | 259 | 1.6 | 4.8 | 0.00 | 0.00 | 0.00 | 98 | 953.5 |
| 20260905044237 | 8 | 89 | 1.6 | 4.8 | 0.00 | 0.00 | 0.00 | 98 | 953.4 |
| 20260905043737 | 8 | 147 | 1.6 | 4.8 | 0.00 | 0.00 | 0.00 | 98 | 953.4 |
| 20260905043237 | 8 | 128 | 1.6 | 3.2 | 0.00 | 0.00 | 0.00 | 98 | 953.4 |
| 20260905042737 | 8 | 107 | 0.0 | 3.2 | 0.00 | 0.00 | 0.00 | 98 | 953.4 |
| 20260905042237 | 8 | 139 | 0.0 | 3.2 | 0.00 | 0.00 | 0.00 | 99 | 953.5 |
| 20260905041737 | 8 | 120 | 0.0 | 4.8 | 0.00 | 0.00 | 0.00 | 99 | 953.5 |
| 20260905041237 | 7 | 95 | 1.6 | 6.4 | 0.00 | 0.00 | 0.00 | 99 | 953.5 |
| 20260905040737 | 8 | 118 | 1.6 | 6.4 | 0.00 | 0.00 | 0.00 | 98 | 953.5 |
| 20260905040237 | 8 | 93 | 0.0 | 3.2 | 0.00 | 0.00 | 0.00 | 99 | 953.5 |
| 20260905035737 | 8 | 156 | 0.0 | 1.6 | 0.00 | 0.00 | 0.00 | 98 | 953.4 |
| 20260905035237 | 7 | 147 | 0.0 | 3.2 | 0.00 | 0.00 | 0.00 | 99 | 953.4 |
| 20260905034737 | 7 | 222 | 0.0 | 3.2 | 0.00 | 0.00 | 0.00 | 99 | 953.4 |
| 20260905034237 | 7 | 90 | 1.6 | 3.2 | 0.00 | 0.00 | 0.00 | 99 | 953.4 |
| 20260905033737 | 7 | 229 | 1.6 | 4.8 | 0.00 | 0.00 | 0.00 | 99 | 953.3 |
| 20260905033236 | 7 | 81 | 1.6 | 4.8 | 0.00 | 0.00 | 0.00 | 99 | 953.2 |
| 20260905032736 | 7 | 53 | 1.6 | 3.2 | 0.00 | 0.00 | 0.00 | 10 | 953.2 |
| 20260905032236 | 7 | 150 | 1.6 | 4.8 | 0.00 | 0.00 | 0.00 | 10 | 953.1 |
| 20260905031736 | 6 | 104 | 1.6 | 4.8 | 0.00 | 0.00 | 0.00 | 10 | 953.2 |
| 20260905031236 | 6 | 103 | 1.6 | 6.4 | 0.00 | 0.00 | 0.00 | 10 | 953.1 |
| 20260905030736 | 6 | 35 | 3.2 | 6.4 | 0.00 | 0.00 | 0.00 | 10 | 953.2 |
| 20260905030236 | 6 | 301 | 4.8 | 8.0 | 0.00 | 0.00 | 0.00 | 10 | 953.1 |
| 20260905025736 | 6 | 308 | 4.8 | 8.0 | 0.00 | 0.00 | 0.00 | 10 | 953.1 |
| 20260905025236 | 6 | 317 | 3.2 | 8.0 | 0.00 | 0.00 | 0.00 | 10 | 953.1 |
| 20260905024736 | 6 | 333 | 1.6 | 6.4 | 0.00 | 0.00 | 0.00 | 10 | 953.1 |
| 20260905024236 | 6 | 258 | 1.6 | 4.8 | 0.00 | 0.00 | 0.00 | 10 | 952.9 |
| 20260905023736 | 6 | 245 | 1.6 | 4.8 | 0.00 | 0.00 | 0.00 | 10 | 952.9 |
| 20260905023236 | 6 | 257 | 1.6 | 3.2 | 0.00 | 0.00 | 0.00 | 10 | 952.9 |
| 20260905022736 | 6 | 169 | 1.6 | 6.4 | 0.00 | 0.00 | 0.00 | 10 | 952.8 |
| 20260905022236 | 6 | 131 | 4.8 | 9.7 | 0.00 | 0.00 | 0.00 | 10 | 952.8 |
| 20260905021735 | 6 | 3 | 4.8 | 9.7 | 0.00 | 0.00 | 0.00 | 10 | 952.8 |
| 20260905021235 | 6 | 313 | 6.4 | 9.7 | 0.00 | 0.00 | 0.00 | 10 | 952.8 |
| 20260905020735 | 5 | 298 | 6.4 | 9.7 | 0.00 | 0.00 | 0.00 | 10 | 952.8 |
| 20260905020235 | 5 | 292 | 6.4 | 9.7 | 0.00 | 0.00 | 0.00 | 10 | 952.8 |
| 20260905015735 | 5 | 341 | 4.8 | 9.7 | 0.00 | 0.00 | 0.00 | 10 | 953.0 |
| 20260905015235 | 6 | 301 | 4.8 | 9.7 | 0.00 | 0.00 | 0.00 | 10 | 952.9 |
| 20260905014735 | 6 | 281 | 6.4 | 9.7 | 0.00 | 0.00 | 0.00 | 10 | 952.8 |
| 20260905014235 | 6 | 295 | 6.4 | 9.7 | 0.00 | 0.00 | 0.00 | 10 | 953.0 |
| 20260905013235 | 6 | 325 | 3.2 | 6.4 | 0.00 | 0.00 | 0.00 | 10 | 953.0 |
| 20260905012735 | 6 | 238 | 1.6 | 4.8 | 0.00 | 0.00 | 0.00 | 10 | 952.9 |
| 20260905012235 | 7 | 230 | 0.0 | 3.2 | 0.00 | 0.00 | 0.00 | 10 | 953.0 |
| 20260905011735 | 7 | 167 | 0.0 | 3.2 | 0.00 | 0.00 | 0.00 | 10 | 952.9 |
| 20260905011235 | 6 | 135 | 1.6 | 4.8 | 0.00 | 0.00 | 0.00 | 10 | 953.0 |
| 20260905010734 | 6 | 113 | 1.6 | 4.8 | 0.00 | 0.00 | 0.00 | 10 | 953.0 |
| 20260905010234 | 6 | 267 | 0.0 | 4.8 | 0.00 | 0.00 | 0.00 | 10 | 953.0 |
| 20260905005734 | 6 | 286 | 0.0 | 1.6 | 0.00 | 0.00 | 0.00 | 10 | 953.1 |
| 20260905005234 | 6 | 235 | 0.0 | 3.2 | 0.00 | 0.00 | 0.00 | 10 | 953.1 |
| 20260905004734 | 6 | 133 | 0.0 | 3.2 | 0.00 | 0.00 | 0.00 | 10 | 953.1 |
| 20260905004234 | 6 | 226 | 0.0 | 3.2 | 0.00 | 0.00 | 0.00 | 10 | 952.9 |
| 20260905003734 | 6 | 343 | 1.6 | 4.8 | 0.00 | 0.00 | 0.00 | 10 | 952.9 |
| 20260905003234 | 6 | 288 | 3.2 | 6.4 | 0.00 | 0.00 | 0.00 | 10 | 952.8 |
| 20260905002734 | 6 | 258 | 4.8 | 8.0 | 0.00 | 0.00 | 0.00 | 10 | 952.8 |
| 20260905002234 | 6 | 279 | 6.4 | 8.0 | 0.00 | 0.00 | 0.00 | 10 | 952.8 |
| 20260905001734 | 6 | 273 | 6.4 | 8.0 | 0.00 | 0.00 | 0.00 | 10 | 952.8 |
| 20260905001234 | 6 | 274 | 6.4 | 8.0 | 0.00 | 0.00 | 0.00 | 10 | 952.7 |
| 20260905000734 | 6 | 260 | 6.4 | 8.0 | 0.00 | 0.00 | 0.00 | 10 | 952.8 |
| 20260905000233 | 6 | 272 | 6.4 | 9.7 | 0.00 | 0.00 | 0.00 | 10 | 952.8 |
| 20260904235733 | 6 | 262 | 6.4 | 9.7 | 0.00 | 0.00 | 0.00 | 10 | 952.8 |
| 20260904235233 | 6 | 260 | 6.4 | 9.7 | 0.00 | 0.00 | 0.00 | 10 | 952.8 |
| 20260904234733 | 6 | 255 | 6.4 | 8.0 | 0.00 | 0.00 | 0.00 | 10 | 952.9 |
| 20260904234233 | 6 | 269 | 6.4 | 8.0 | 0.00 | 0.00 | 0.00 | 10 | 952.9 |
| 20260904233733 | 6 | 264 | 6.4 | 8.0 | 0.00 | 0.00 | 0.00 | 10 | 952.9 |
| 20260904233233 | 7 | 275 | 4.8 | 6.4 | 0.00 | 0.00 | 0.00 | 10 | 952.8 |
| 20260904232733 | 7 | 259 | 4.8 | 6.4 | 0.00 | 0.00 | 0.00 | 10 | 952.9 |
| 20260904232233 | 6 | 257 | 4.8 | 6.4 | 0.00 | 0.00 | 0.00 | 10 | 952.9 |
| 20260904231733 | 6 | 270 | 3.2 | 6.4 | 0.00 | 0.00 | 0.00 | 10 | 953.0 |
| 20260904231233 | 6 | 274 | 1.6 | 4.8 | 0.00 | 0.00 | 0.00 | 10 | 953.0 |
| 20260904230733 | 6 | 280 | 1.6 | 3.2 | 0.00 | 0.00 | 0.00 | 10 | 953.0 |
| 20260904230233 | 6 | 275 | 1.6 | 4.8 | 0.00 | 0.00 | 0.00 | 10 | 953.0 |
| 20260904225733 | 6 | 258 | 1.6 | 4.8 | 0.00 | 0.00 | 0.00 | 10 | 953.0 |
| 20260904225232 | 6 | 240 | 1.6 | 4.8 | 0.00 | 0.00 | 0.00 | 10 | 953.0 |
| 20260904224732 | 6 | 248 | 1.6 | 6.4 | 0.00 | 0.00 | 0.00 | 10 | 953.0 |
| 20260904224232 | 6 | 248 | 1.6 | 6.4 | 0.00 | 0.00 | 0.00 | 10 | 953.0 |
| 20260904223732 | 6 | 167 | 1.6 | 6.4 | 0.00 | 0.00 | 0.00 | 10 | 952.9 |
| 20260904223232 | 6 | 296 | 3.2 | 4.8 | 0.00 | 0.00 | 0.00 | 10 | 952.8 |
| 20260904222732 | 7 | 297 | 3.2 | 4.8 | 0.00 | 0.00 | 0.00 | 10 | 952.9 |
| 20260904222232 | 7 | 289 | 3.2 | 6.4 | 0.00 | 0.00 | 0.00 | 10 | 952.8 |
| 20260904221732 | 7 | 285 | 4.8 | 6.4 | 0.00 | 0.00 | 0.00 | 10 | 952.9 |
| 20260904221232 | 7 | 297 | 4.8 | 6.4 | 0.00 | 0.00 | 0.00 | 10 | 952.9 |
| 20260904220732 | 7 | 279 | 4.8 | 6.4 | 0.00 | 0.00 | 0.00 | 10 | 952.9 |
| 20260904220232 | 7 | 295 | 4.8 | 6.4 | 0.00 | 0.00 | 0.00 | 10 | 952.9 |
| 20260904215732 | 7 | 298 | 4.8 | 8.0 | 0.00 | 0.00 | 0.00 | 10 | 952.8 |
| 20260904215232 | 7 | 291 | 4.8 | 8.0 | 0.00 | 0.00 | 0.00 | 10 | 952.9 |
| 20260904214732 | 7 | 300 | 4.8 | 6.4 | 0.00 | 0.00 | 0.00 | 10 | 952.9 |
| 20260904214232 | 7 | 303 | 4.8 | 6.4 | 0.00 | 0.00 | 0.00 | 10 | 953.0 |
| 20260904213732 | 7 | 310 | 4.8 | 6.4 | 0.00 | 0.00 | 0.00 | 10 | 953.0 |
| 20260904213231 | 7 | 304 | 4.8 | 6.4 | 0.00 | 0.00 | 0.00 | 10 | 953.0 |
| 20260904212731 | 7 | 310 | 4.8 | 6.4 | 0.00 | 0.00 | 0.00 | 10 | 952.9 |
| 20260904212231 | 7 | 323 | 4.8 | 4.8 | 0.00 | 0.00 | 0.00 | 10 | 952.8 |
| 20260904211731 | 7 | 308 | 4.8 | 4.8 | 0.00 | 0.00 | 0.00 | 10 | 952.9 |
| 20260904211231 | 7 | 322 | 4.8 | 4.8 | 0.00 | 0.00 | 0.00 | 10 | 952.8 |
| 20260904210731 | 7 | 310 | 3.2 | 4.8 | 0.00 | 0.00 | 0.00 | 10 | 952.9 |
| 20260904210231 | 7 | 309 | 4.8 | 6.4 | 0.00 | 0.00 | 0.00 | 10 | 952.8 |
| 20260904205731 | 7 | 307 | 4.8 | 6.4 | 0.00 | 0.00 | 0.00 | 10 | 952.9 |
| 20260904205231 | 7 | 294 | 4.8 | 6.4 | 0.00 | 0.00 | 0.00 | 10 | 952.9 |
| 20260904204731 | 7 | 313 | 4.8 | 6.4 | 0.00 | 0.00 | 0.00 | 10 | 953.0 |
| 20260904204231 | 7 | 322 | 4.8 | 8.0 | 0.00 | 0.00 | 0.00 | 10 | 953.0 |
| 20260904203731 | 7 | 336 | 4.8 | 8.0 | 0.00 | 0.00 | 0.00 | 10 | 952.9 |
| 20260904203231 | 7 | 308 | 4.8 | 8.0 | 0.00 | 0.00 | 0.00 | 10 | 952.9 |
| 20260904202731 | 7 | 327 | 4.8 | 8.0 | 0.00 | 0.00 | 0.00 | 10 | 952.8 |
| 20260904202231 | 7 | 331 | 6.4 | 9.7 | 0.00 | 0.00 | 0.00 | 99 | 952.7 |
| 20260904201730 | 7 | 326 | 6.4 | 9.7 | 0.00 | 0.00 | 0.00 | 99 | 952.7 |
| 20260904201230 | 7 | 315 | 6.4 | 9.7 | 0.00 | 0.00 | 0.00 | 99 | 952.7 |
| 20260904200730 | 7 | 300 | 6.4 | 9.7 | 0.00 | 0.00 | 0.00 | 99 | 952.7 |
| 20260904200230 | 7 | 305 | 6.4 | 9.7 | 0.00 | 0.00 | 0.00 | 99 | 952.7 |
| 20260904195730 | 7 | 304 | 6.4 | 11.3 | 0.00 | 0.00 | 0.00 | 99 | 952.8 |
| 20260904195230 | 8 | 311 | 6.4 | 11.3 | 0.00 | 0.00 | 0.00 | 98 | 952.8 |
| 20260904194730 | 8 | 303 | 8.0 | 12.9 | 0.00 | 0.00 | 0.00 | 98 | 952.7 |
| 20260904194230 | 8 | 305 | 8.0 | 12.9 | 0.00 | 0.00 | 0.00 | 98 | 952.7 |
| 20260904193730 | 8 | 308 | 6.4 | 12.9 | 0.00 | 0.00 | 0.00 | 98 | 952.7 |
| 20260904193230 | 8 | 311 | 6.4 | 11.3 | 0.00 | 0.00 | 0.00 | 98 | 952.9 |
| 20260904192730 | 8 | 307 | 6.4 | 9.7 | 0.00 | 0.00 | 0.00 | 98 | 952.8 |
| 20260904192230 | 8 | 306 | 6.4 | 11.3 | 0.00 | 0.00 | 0.00 | 98 | 952.8 |
| 20260904191730 | 8 | 310 | 6.4 | 11.3 | 0.00 | 0.00 | 0.00 | 98 | 952.8 |
| 20260904191230 | 8 | 314 | 6.4 | 8.0 | 0.00 | 0.00 | 0.00 | 97 | 952.8 |
| 20260904190730 | 8 | 311 | 6.4 | 8.0 | 0.00 | 0.00 | 0.00 | 97 | 952.9 |
| 20260904190229 | 8 | 332 | 6.4 | 8.0 | 0.00 | 0.00 | 0.00 | 96 | 952.8 |
| 20260904185729 | 8 | 305 | 6.4 | 8.0 | 0.00 | 0.00 | 0.00 | 96 | 952.8 |
| 20260904185229 | 8 | 311 | 6.4 | 9.7 | 0.00 | 0.00 | 0.00 | 95 | 952.8 |
| 20260904184729 | 8 | 307 | 6.4 | 9.7 | 0.00 | 0.00 | 0.00 | 94 | 952.9 |
| 20260904184229 | 8 | 313 | 6.4 | 9.7 | 0.00 | 0.00 | 0.00 | 94 | 952.9 |
| 20260904183729 | 9 | 314 | 6.4 | 11.3 | 0.00 | 0.00 | 0.00 | 93 | 953.0 |
| 20260904183229 | 9 | 308 | 6.4 | 11.3 | 0.00 | 0.00 | 0.00 | 91 | 952.9 |
| 20260904182729 | 9 | 302 | 6.4 | 12.9 | 0.00 | 0.00 | 0.00 | 91 | 952.8 |
| 20260904182229 | 9 | 304 | 6.4 | 12.9 | 0.00 | 0.00 | 0.00 | 90 | 952.8 |
| 20260904181729 | 10 | 317 | 6.4 | 12.9 | 0.00 | 0.00 | 0.00 | 88 | 952.8 |
| 20260904181229 | 10 | 314 | 6.4 | 9.7 | 0.00 | 0.00 | 0.00 | 88 | 952.8 |
| 20260904180729 | 10 | 315 | 6.4 | 8.0 | 0.00 | 0.00 | 0.00 | 87 | 952.8 |
| 20260904180229 | 10 | 311 | 6.4 | 11.3 | 0.00 | 0.00 | 0.00 | 86 | 952.9 |
| 20260904175729 | 10 | 320 | 6.4 | 11.3 | 0.00 | 0.00 | 0.00 | 85 | 952.8 |
| 20260904175229 | 10 | 303 | 4.8 | 8.0 | 0.00 | 0.00 | 0.00 | 84 | 952.7 |
| 20260904174729 | 10 | 302 | 4.8 | 8.0 | 0.00 | 0.00 | 0.00 | 83 | 952.7 |
| 20260904174228 | 10 | 302 | 6.4 | 9.7 | 0.00 | 0.00 | 0.00 | 83 | 952.6 |
| 20260904173728 | 11 | 301 | 4.8 | 9.7 | 0.00 | 0.00 | 0.00 | 81 | 952.6 |
| 20260904173228 | 11 | 312 | 4.8 | 8.0 | 0.00 | 0.00 | 0.00 | 81 | 952.7 |
| 20260904172728 | 11 | 309 | 4.8 | 9.7 | 0.00 | 0.00 | 0.00 | 81 | 952.5 |
| 20260904171728 | 11 | 323 | 6.4 | 12.9 | 0.00 | 0.00 | 0.00 | 79 | 952.6 |
| 20260904171228 | 11 | 308 | 6.4 | 11.3 | 0.00 | 0.00 | 0.00 | 78 | 952.6 |
| 20260904170728 | 11 | 300 | 6.4 | 11.3 | 0.00 | 0.00 | 0.00 | 78 | 952.6 |
| 20260904170228 | 11 | 309 | 6.4 | 11.3 | 0.00 | 0.00 | 0.00 | 79 | 952.6 |
| 20260904165728 | 12 | 312 | 6.4 | 12.9 | 0.00 | 0.00 | 0.00 | 78 | 952.7 |
| 20260904165228 | 12 | 315 | 6.4 | 12.9 | 0.00 | 0.00 | 0.00 | 78 | 952.7 |
| 20260904164728 | 12 | 336 | 6.4 | 11.3 | 0.00 | 0.00 | 0.00 | 77 | 952.7 |
| 20260904164228 | 12 | 294 | 6.4 | 11.3 | 0.00 | 0.00 | 0.00 | 77 | 952.8 |
| 20260904163728 | 12 | 297 | 6.4 | 12.9 | 0.00 | 0.00 | 0.00 | 78 | 952.7 |
| 20260904163227 | 12 | 310 | 6.4 | 14.5 | 0.00 | 0.00 | 0.00 | 77 | 952.8 |
| 20260904162727 | 12 | 344 | 8.0 | 14.5 | 0.00 | 0.00 | 0.00 | 75 | 952.8 |
| 20260904162227 | 12 | 349 | 8.0 | 14.5 | 0.00 | 0.00 | 0.00 | 75 | 952.8 |
| 20260904161727 | 12 | 326 | 8.0 | 14.5 | 0.00 | 0.00 | 0.00 | 73 | 952.7 |
| 20260904161227 | 12 | 350 | 6.4 | 14.5 | 0.00 | 0.00 | 0.00 | 72 | 952.8 |
| 20260904160727 | 13 | 26 | 6.4 | 14.5 | 0.00 | 0.00 | 0.00 | 71 | 952.8 |
| 20260904160227 | 13 | 294 | 6.4 | 14.5 | 0.00 | 0.00 | 0.00 | 71 | 952.8 |
| 20260904155727 | 13 | 328 | 6.4 | 14.5 | 0.00 | 0.00 | 0.00 | 68 | 952.8 |
| 20260904155227 | 13 | 24 | 4.8 | 11.3 | 0.00 | 0.00 | 0.00 | 69 | 952.8 |
| 20260904154727 | 13 | 334 | 6.4 | 11.3 | 0.00 | 0.00 | 0.00 | 71 | 952.8 |